Hourly Data Report for June 14, 2021

LYTTON RCS
BRITISH COLUMBIA
Current Station Operator: ECCC - MSC

50°13'28.000" N
121°34'55.000" W
225.00 m
1114746
71765
VLY

Download Data

Hourly Data (June 2021)
Hourly Data Report for June 14, 2021
TIME
LST
Temp Definition
°C
Dew Point Definition
°C
Rel Hum Definition
%
Precip. Amount Definition
mm

Wind Dir Definition
10's deg

Wind Spd Definition
km/h
Visibility Definition
km
Stn Press Definition
kPa
Hmdx Definition


Wind Chill Definition


Weather Definition


00:00 17.1 12.3 73 0.0 20 20   98.57     LegendNANA
01:00 16.6 12.4 76 0.0 15 14   98.58     LegendNANA
02:00 16.1 12.2 78 0.0 14 14   98.52     LegendNANA
03:00 15.8 12.0 78 0.0 15 17   98.54     LegendNANA
04:00 15.5 11.9 79 0.0 18 13   98.56     LegendNANA
05:00 15.2 11.5 79 0.0 17 11   98.61     LegendNANA
06:00 15.4 11.2 76 0.0 19 20   98.61     LegendNANA
07:00 16.2 11.3 73 0.0 20 18   98.67     LegendNANA
08:00 18.1 11.6 66 0.0 19 20   98.66     LegendNANA
09:00 20.2 10.8 55 0.0 19 25   98.58     LegendNANA
10:00 23.1 10.2 44 0.0 19 20   98.54     LegendNANA
11:00 25.7 9.5 36 0.0 19 20   98.50 27   LegendNANA
12:00 26.4 8.8 33 0.0 18 22   98.45 27   LegendNANA
13:00 25.0 8.3 35 0.0 18 22   98.48 26   LegendNANA
14:00 23.8 5.0 30 0.0 17 20   98.65     LegendNANA
15:00 22.0 7.6 40 0.0 18 29   98.75     LegendNANA
16:00 21.5 7.8 41 0.0 21 13   98.79     LegendNANA
17:00 19.7 9.0 50 0.0 19 23   98.81     LegendNANA
18:00 19.2 9.7 54 0.0 19 20   98.83     LegendNANA
19:00 19.0 9.7 55 0.0 21 19   98.82     LegendNANA
20:00 18.4 9.6 56 0.0 20 16   98.81     LegendNANA
21:00 17.9 9.5 58 0.0 21 20   98.79     LegendNANA
22:00 17.5 9.4 59 0.0 19 20   98.82     LegendNANA
23:00 16.3 10.0 66 0.0 19 22   98.79     LegendNANA

Notes on Data Quality.

Legend

  • E = Estimated
  • M = Missing
  • NA = Not Available*
  • [empty] = Indicates an unobserved value
Date modified: